Location: ???????
(56.2167°N, 38.0500°E)
Time: 03:56:29
(UTC+00:00)

Cosmos 1733 Rocket - Pass Details

Date: 19 May 2025
Orbit: 598 x 620 km, 82.5° (Epoch: 15 June)

Event Time Altitude Azimuth Distance (km) Brightness Sun altitude
Rises 23:31:08 0° 346° (NNW) 2,911 7.3 -9.2°
Reaches altitude 10° 23:33:22 10° 345° (NNW) 2,002 6.4 -9.1°
Maximum altitude 23:37:48 77° 260° (W) 644 3.1 -8.8°
Drops below altitude 10° 23:42:12 10° 175° (S) 1,988 5.2 -8.4°
Enters shadow 23:43:23 - 175° (S) 2,461 5.7 -8.3°
